Weather History for Fort Campbell, KY

Change the Weather History Date:

Friday, October 5, 2012

  Actual Average Record
Temperature  
Mean Temperature 62 °F -  
Max Temperature 79 °F 73 °F 87 °F (1997)
Min Temperature 46 °F 50 °F 37 °F (2010)
Degree Days  
Heating Degree Days 3    
Growing Degree Days 12 (Base 50)    
Moisture  
Dew Point 55 °F    
Average Humidity 88    
Maximum Humidity 100    
Minimum Humidity 51    
Precipitation  
Precipitation 0.04 in - - ()
Sea Level Pressure  
Sea Level Pressure 30.09 in    
Wind  
Wind Speed 6 mph (SW)    
Max Wind Speed 14 mph    
Max Gust Speed 20 mph    
Visibility 10 miles    
Events Rain    
Averages and records for this station are not official NWS values.
T = Trace of Precipitation, MM = Missing Value Source: NWS Daily Summary

Daily Weather History Graph

Daily Weather History Graph

Search for Another Location

Airport:

Trip Planner

Search our weather history database for the weather conditions in past years. The results will help you decide how hot, cold, wet, or windy it might be!

Date:

Astronomy

Oct. 05, 2012 Rise Set
Actual Time 6:49 AM CDT 6:26 PM CDT
Civil Twilight 6:23 AM CDT 6:52 PM CDT
Nautical Twilight 5:53 AM CDT 7:22 PM CDT
Astronomical Twilight 5:23 AM CDT 7:52 PM CDT
Moon 9:57 PM CDT (10/5) 11:49 AM CDT (10/5)
Length of Visible Light 12h 29m
Length of Day
11h 37m
Waning Gibbous, 74% of the Moon is Illuminated
Oct 5
Waning Gibbous
Oct 8
Last Quarter
Oct 15
New
Oct 21
First Quarter
Oct 29
Full

Hourly Weather History & Observations

Time (CDT) Temp. Windchill Dew Point Humidity Pressure Visibility Wind Dir Wind Speed Gust Speed Precip Events Conditions
12:55 AM 62.4 °F - 61.0 °F 95% 30.18 in 10.0 mi SSW 3.5 mph - N/A   Clear
1:55 AM 61.3 °F - 61.0 °F 99% 30.17 in 10.0 mi SSW 3.5 mph - N/A   Clear
2:55 AM 60.8 °F - 60.8 °F 100% 30.16 in 10.0 mi SSW 3.5 mph - N/A   Clear
3:55 AM 60.1 °F - 60.1 °F 100% 30.15 in 10.0 mi SSW 3.5 mph - N/A   Clear
4:55 AM 59.9 °F - 59.9 °F 100% 30.15 in 10.0 mi SSW 3.5 mph - N/A   Clear
5:55 AM 59.7 °F - 59.7 °F 100% 30.16 in 10.0 mi South 3.5 mph - N/A   Clear
6:55 AM 59.4 °F - 59.4 °F 100% 30.15 in 10.0 mi Calm Calm - N/A   Clear
7:55 AM 61.0 °F - 61.0 °F 100% 30.14 in 10.0 mi SSW 3.5 mph - N/A   Clear
8:55 AM 66.7 °F - 65.5 °F 96% 30.14 in 10.0 mi SSW 5.8 mph - N/A   Clear
9:55 AM 72.5 °F - 63.9 °F 74% 30.14 in 10.0 mi WSW 6.9 mph - N/A   Clear
10:55 AM 76.1 °F - 63.5 °F 65% 30.12 in 10.0 mi WSW 11.5 mph - N/A   Clear
11:55 AM 77.2 °F - 61.5 °F 58% 30.10 in 10.0 mi SW 12.7 mph - N/A   Scattered Clouds
12:55 PM 78.3 °F - 61.2 °F 56% 30.07 in 10.0 mi SW 12.7 mph - N/A   Clear
1:55 PM 78.8 °F - 59.4 °F 51% 30.03 in 10.0 mi SW 13.8 mph 19.6 mph N/A   Clear
2:55 PM 78.1 °F - 60.4 °F 54% 30.01 in 10.0 mi SW 11.5 mph - N/A   Scattered Clouds
3:55 PM 76.8 °F - 60.4 °F 57% 29.99 in 10.0 mi SW 10.4 mph - N/A   Partly Cloudy
4:55 PM 75.0 °F - 61.9 °F 64% 29.99 in 10.0 mi SSW 8.1 mph - N/A   Partly Cloudy
5:55 PM 73.6 °F - 61.5 °F 66% 29.98 in 10.0 mi SSW 5.8 mph - N/A   Mostly Cloudy
6:55 PM 72.3 °F - 61.7 °F 69% 29.96 in 10.0 mi South 4.6 mph - N/A   Mostly Cloudy
7:52 PM 66.2 °F - 59.0 °F 78% 30.03 in 10.0 mi NNW 9.2 mph 19.6 mph N/A   Light Drizzle
7:55 PM 64.4 °F - 57.4 °F 78% 30.02 in 10.0 mi North 8.1 mph 19.6 mph 0.00 in   Light Drizzle
8:29 PM 55.4 °F - 53.6 °F 94% 30.06 in 10.0 mi Variable 5.8 mph - N/A   Mostly Cloudy
8:30 PM 55.4 °F - 53.6 °F 94% 30.06 in 10.0 mi Variable 6.9 mph - N/A   Mostly Cloudy
8:34 PM 53.6 °F - 53.6 °F 100% 30.07 in 10.0 mi Variable 5.8 mph - N/A   Light Drizzle
8:55 PM 51.6 °F - 50.4 °F 95% 30.06 in 10.0 mi North 6.9 mph 17.3 mph 0.02 in Rain Light Rain
9:19 PM 50.0 °F - 50.0 °F 100% 30.07 in 10.0 mi Variable 4.6 mph - N/A   Light Drizzle
9:37 PM 50.0 °F - 50.0 °F 100% 30.08 in 10.0 mi Variable 5.8 mph - N/A   Overcast
9:49 PM 50.0 °F - 48.2 °F 94% 30.09 in 10.0 mi Variable 6.9 mph - N/A   Overcast
9:55 PM 48.7 °F - 48.4 °F 99% 30.10 in 10.0 mi Variable 4.6 mph - 0.02 in   Overcast
10:11 PM 48.2 °F - 48.2 °F 100% 30.08 in 10.0 mi Variable 4.6 mph - N/A   Overcast
10:25 PM 48.2 °F - 48.2 °F 100% 30.08 in 10.0 mi Variable 5.8 mph - N/A   Overcast
10:49 PM 48.2 °F - 46.4 °F 93% 30.10 in 10.0 mi Variable 5.8 mph - N/A   Overcast
10:55 PM 47.5 °F - 47.1 °F 99% 30.09 in 10.0 mi Variable 6.9 mph - N/A   Overcast
10:59 PM 48.2 °F - 46.4 °F 93% 30.10 in 10.0 mi Variable 3.5 mph - N/A   Overcast
11:11 PM 48.2 °F - 46.4 °F 93% 30.09 in 10.0 mi North 9.2 mph - N/A   Overcast
11:27 PM 48.2 °F - 46.4 °F 93% 30.09 in 10.0 mi Variable 3.5 mph - N/A   Overcast
11:38 PM 46.4 °F 44.3 °F 46.4 °F 100% 30.12 in 10.0 mi Variable 4.6 mph - N/A   Overcast
11:44 PM 46.4 °F 44.3 °F 46.4 °F 100% 30.11 in 10.0 mi Variable 4.6 mph - N/A   Light Drizzle
11:54 PM 46.4 °F 42.9 °F 46.4 °F 100% 30.10 in 10.0 mi Variable 6.9 mph - N/A   Overcast
11:55 PM 46.2 °F 41.7 °F 45.9 °F 99% 30.10 in 10.0 mi North 9.2 mph - 0.00 in   Overcast